This demonstration page uses our WeatherBlox Daily Observations layout. Learn more.

Left ArrowRight Arrow

Hourly Observations for January 22, 2016

Temp ( °F °C ) Dew Point ( °F °C ) Humidity (%) Winds ( mph kmh ) Pressure ( in mb ) Visibility ( mi km ) Precip ( " mm )
12:51 am 00:51 Clear 41 5 18 -7.8 39 39 E 8 13 30.23 1024 10 16 N/A
1:51 am 01:51 Clear 42 5.6 17 -8.3 36 36 ESE 9 15 30.23 1024 10 16 N/A
2:51 am 02:51 Clear 39 3.9 17 -8.3 41 41 N N/A 30.24 1024 10 16 N/A
3:51 am 03:51 Clear 41 5 17 -8.3 38 38 SE 13 20 30.23 1024 10 16 N/A
4:51 am 04:51 Clear 40 4.4 16 -8.9 38 38 SE 15 24 30.23 1024 10 16 N/A
5:51 am 05:51 Clear 40 4.4 16 -8.9 38 38 SSE 12 19 30.25 1024 10 16 N/A
6:51 am 06:51 Clear 39 3.9 16 -8.9 39 39 ESE 12 19 30.28 1025 10 16 N/A
7:51 am 07:51 Sunny 40 4.4 16 -8.9 38 38 SE 14 22 30.29 1026 10 16 N/A
8:51 am 08:51 Sunny 44 6.7 17 -8.3 34 34 ESE 13 20 30.30 1026 10 16 N/A
9:51 am 09:51 Sunny 50 10 17 -8.3 27 27 ESE 13 20 30.30 1026 10 16 N/A
10:51 am 10:51 Sunny 54 12.2 15 -9.4 21 21 ESE 12 19 30.28 1026 10 16 N/A
11:51 am 11:51 Sunny 58 14.4 16 -8.9 19 19 SE 9 15 30.25 1024 10 16 N/A
12:51 pm 12:51 Sunny 60 15.6 17 -8.3 19 19 S 10 17 30.19 1023 10 16 N/A
1:51 pm 13:51 Sunny 62 16.7 17 -8.3 17 17 SSW 7 11 30.15 1021 10 16 N/A
2:51 pm 14:51 Sunny 63 17.2 17 -8.3 17 17 S 9 15 30.13 1020 10 16 N/A
3:51 pm 15:51 Sunny 64 17.8 16 -8.9 15 15 SE 9 15 30.11 1020 10 16 N/A
4:51 pm 16:51 Sunny 63 17.2 16 -8.9 16 16 S 5 7 30.11 1020 10 16 N/A
5:51 pm 17:51 Clear 58 14.4 18 -7.8 21 21 N N/A 30.12 1020 10 16 N/A
6:51 pm 18:51 Clear 49 9.4 21 -6.1 33 33 NE 8 13 30.15 1021 10 16 N/A
7:51 pm 19:51 Clear 46 7.8 21 -6.1 37 37 E 8 13 30.16 1021 10 16 N/A
8:51 pm 20:51 Clear 43 6.1 21 -6.1 42 42 ESE 6 9 30.17 1022 10 16 N/A
9:51 pm 21:51 Clear 44 6.7 21 -6.1 40 40 E 10 17 30.14 1021 10 16 N/A
10:51 pm 22:51 Clear 48 8.9 19 -7.2 32 32 SE 6 9 30.13 1020 10 16 N/A
11:51 pm 23:51 Clear 46 7.8 19 -7.2 34 34 SE 7 11 30.12 1020 10 16 N/A

Powered by AerisWeather